Tracking 29892 objects as of 21-Nov-2024
HD Live streaming from Space Station
objects crossing your sky now

STARLINK-2361

Track STARLINK-2361 now!
10-day predictions
STARLINK-2361 is classified as:


NORAD ID: 47901
Int'l Code: 2021-021AT
Perigee: 554.0 km
Apogee: 554.7 km
Inclination: 53.1 °
Period: 95.6 minutes
Semi major axis: 6925 km
RCS: Unknown
Launch date: March 14, 2021
Source: United States (US)
Launch site: AIR FORCE EASTERN TEST RANGE (AFETR)
Your satellite tracking list
Your tracking list is empty




NASA's NSSDC Master Catalog

Two Line Element Set (TLE):
1 47901U 21021AT  24324.97672368  .00020876  00000-0  14161-2 0  9998
2 47901  53.0542 232.7743 0000452  69.7569 290.3468 15.06403729204772
Source of the keplerian elements: AFSPC